TimeCDT,TemperatureF,Dew PointF,Humidity,Sea Level PressureIn,VisibilityMPH,Wind Direction,Wind SpeedMPH,Gust SpeedMPH,PrecipitationIn,Events,Conditions,WindDirDegrees,DateUTC
12:02 AM,64.4,64.4,100,30.14,1.5,Calm,Calm,-,N/A,,Clear,0,2013-04-25 05:02:00
12:06 AM,64.4,64.4,100,30.14,0.8,Calm,Calm,-,N/A,,Mist,0,2013-04-25 05:06:00
12:20 AM,64.4,64.4,100,30.14,1.0,Calm,Calm,-,N/A,,Clear,0,2013-04-25 05:20:00
12:28 AM,66.2,64.4,94,30.13,3.0,NE,3.5,-,N/A,,Clear,40,2013-04-25 05:28:00
12:45 AM,66.2,64.4,94,30.13,2.0,NE,3.5,-,N/A,,Partly Cloudy,50,2013-04-25 05:45:00
12:48 AM,66.2,64.4,94,30.13,1.0,NE,4.6,-,N/A,,Mist,50,2013-04-25 05:48:00
12:53 AM,66.9,64.9,93,30.14,0.5,NE,4.6,-,N/A,Fog,Fog,50,2013-04-25 05:53:00
1:00 AM,66.2,64.4,94,30.13,0.2,ENE,4.6,-,N/A,Fog,Fog,60,2013-04-25 06:00:00
1:53 AM,66.0,64.9,96,30.14,0.2,NNE,4.6,-,N/A,Fog,Fog,20,2013-04-25 06:53:00
2:02 AM,66.2,64.4,94,30.12,0.5,NNE,5.8,-,N/A,Fog,Fog,30,2013-04-25 07:02:00
2:21 AM,64.4,62.6,94,30.13,0.2,North,6.9,-,N/A,Fog,Fog,10,2013-04-25 07:21:00
2:26 AM,64.4,62.6,94,30.13,0.2,North,6.9,-,N/A,Fog,Fog,10,2013-04-25 07:26:00
2:33 AM,64.4,62.6,94,30.13,0.5,North,5.8,-,N/A,Fog,Fog,360,2013-04-25 07:33:00
2:53 AM,64.0,63.0,96,30.14,0.5,North,8.1,-,N/A,Fog,Fog,360,2013-04-25 07:53:00
3:53 AM,62.1,61.0,96,30.16,0.8,North,8.1,-,N/A,,Mist,350,2013-04-25 08:53:00
4:11 AM,60.8,60.8,100,30.15,2.0,North,9.2,-,N/A,,Overcast,350,2013-04-25 09:11:00
4:19 AM,60.8,60.8,100,30.15,5.0,North,9.2,-,N/A,,Overcast,350,2013-04-25 09:19:00
4:34 AM,60.8,60.8,100,30.16,2.5,North,9.2,-,N/A,,Overcast,350,2013-04-25 09:34:00
4:46 AM,60.8,60.8,100,30.16,1.5,North,5.8,-,N/A,,Overcast,350,2013-04-25 09:46:00
4:53 AM,61.0,59.0,93,30.17,1.2,North,6.9,-,N/A,,Overcast,350,2013-04-25 09:53:00
5:30 AM,60.8,59.0,94,30.17,3.0,North,8.1,-,N/A,,Overcast,360,2013-04-25 10:30:00
5:53 AM,60.8,57.2,88,30.17,5.0,North,11.5,-,N/A,,Overcast,350,2013-04-25 10:53:00
6:40 AM,59.0,55.4,88,30.20,10.0,North,9.2,-,N/A,,Overcast,360,2013-04-25 11:40:00
6:53 AM,57.9,55.9,93,30.21,10.0,North,10.4,-,N/A,,Overcast,350,2013-04-25 11:53:00
7:53 AM,59.0,55.9,90,30.23,10.0,North,10.4,-,N/A,,Overcast,10,2013-04-25 12:53:00
8:53 AM,61.0,55.9,83,30.26,10.0,North,9.2,-,N/A,,Overcast,10,2013-04-25 13:53:00
9:53 AM,61.0,55.0,81,30.28,10.0,North,15.0,-,N/A,,Overcast,350,2013-04-25 14:53:00
10:19 AM,62.6,55.4,77,30.26,10.0,North,10.4,-,N/A,,Overcast,360,2013-04-25 15:19:00
10:53 AM,66.0,57.0,73,30.27,10.0,North,8.1,17.3,N/A,,Scattered Clouds,10,2013-04-25 15:53:00
11:05 AM,66.2,57.2,73,30.27,10.0,North,12.7,-,N/A,,Mostly Cloudy,10,2013-04-25 16:05:00
11:29 AM,69.8,57.2,64,30.26,10.0,NNE,8.1,-,N/A,,Scattered Clouds,30,2013-04-25 16:29:00
11:53 AM,70.0,59.0,68,30.26,10.0,North,8.1,-,N/A,,Clear,360,2013-04-25 16:53:00
12:53 PM,75.0,61.0,62,30.25,10.0,North,4.6,-,N/A,,Clear,360,2013-04-25 17:53:00
1:53 PM,75.9,60.1,58,30.25,10.0,NNE,10.4,-,N/A,,Partly Cloudy,30,2013-04-25 18:53:00
2:53 PM,78.1,59.0,52,30.24,10.0,Calm,Calm,-,N/A,,Scattered Clouds,0,2013-04-25 19:53:00
3:53 PM,79.0,59.0,50,30.22,10.0,NNE,5.8,-,N/A,,Scattered Clouds,20,2013-04-25 20:53:00
4:53 PM,79.0,57.9,48,30.22,10.0,NNW,5.8,-,N/A,,Clear,330,2013-04-25 21:53:00
5:53 PM,78.1,54.0,43,30.21,10.0,North,8.1,-,N/A,,Clear,10,2013-04-25 22:53:00
6:53 PM,75.0,54.0,48,30.22,10.0,North,6.9,-,N/A,,Clear,350,2013-04-25 23:53:00
7:53 PM,71.1,51.1,49,30.23,10.0,North,8.1,-,N/A,,Clear,360,2013-04-26 00:53:00
8:53 PM,69.1,48.9,49,30.25,10.0,North,8.1,-,N/A,,Clear,10,2013-04-26 01:53:00
9:53 PM,66.9,46.9,49,30.27,10.0,NNE,6.9,-,N/A,,Clear,20,2013-04-26 02:53:00
10:53 PM,66.0,44.1,45,30.26,10.0,NNE,6.9,-,N/A,,Clear,20,2013-04-26 03:53:00
11:53 PM,64.9,42.1,43,30.26,10.0,NNE,6.9,-,N/A,,Clear,20,2013-04-26 04:53:00